Location: Charlottesville
(38.0290°N, 78.4770°W)
Time: 02:54:38
(UTC-04:00)

ISS - Pass Details

Date: 12 October 2017
Orbit: 401 x 408 km, 51.6° (Epoch: 21 October)

Event Time Altitude Azimuth Distance (km) Brightness Sun altitude
Rises 21:10:37 0° 301° (WNW) 2,325 1.1 -30.3°
Reaches altitude 10° 21:12:49 10° 292° (WNW) 1,463 -0.1 -30.7°
Enters shadow 21:13:11 12° 289° (WNW) 1,326 -0.4 -30.7°
